Flag for Rwanda Weather past 2 weeks in Kigali, Rwanda

Now
88 °F

Scattered clouds.


Feels Like: 87 °F
Forecast: 63 / 81 °F
Wind: 7 mph from South

Location: Kigali Airport

Current Time: Sep 2, 2015 at 3:50:42 PM

Latest Report: Sep 2, 2015 at 3:30 PM


Visibility: N/A

Pressure: 30.04 "Hg (25.22 "Hg at 1555m altitude)

Humidity: 35%

Dew point: 57 °F

Location of KigaliLocation

Historic Weather in Kigali — Graph

°F

Kigali temperature yesterday

Maximum temperature yesterday: 86 °F (at 4:00 PM)
Minimum temperature yesterday: 63 °F (at 4:00 AM)
Average temperature yesterday: 73 °F

Past Weeks' High & Low Weather Summary

 TemperatureHumidityPressure
High90 °F (Aug 20, 3:30 PM)100% (Aug 31, 11:00 PM)30.27 "Hg (Aug 31, 11:00 PM)
Low57 °F (Aug 24, 5:30 AM)23% (Aug 24, 5:00 PM)29.98 "Hg (Aug 20, 5:00 PM)
Average75 °F53%30.12 "Hg
* Reported Aug 18 2:00 PM — Sep 2 2:30 PM, Kigali, Weather by CustomWeather, © 2015

Note: Actual official high and low records may vary slightly from our data, if they occured in-between our weather recording intervals... More about our weather records

Advertising

Kigali weather history for previous 24 hours

 ConditionsComfort  
Time TempWeatherWind HumidityBarometerVisibility
2:30 PM
Wed, Sep 2
88 °FPartly sunny.9 mph35%30.04 "HgN/A
2:00 PM86 °FPartly sunny.9 mph40%30.07 "HgN/A
1:30 PM86 °FPartly sunny.7 mph40%30.09 "HgN/A
1:00 PM82 °FPartly sunny.7 mph48%30.12 "HgN/A
12:30 PM84 °FPartly sunny.3 mph45%30.12 "HgN/A
12:00 PM86 °FPartly sunny.5 mph43%30.15 "HgN/A
11:00 AM82 °FScattered clouds.5 mph48%30.18 "HgN/A
10:30 AM84 °FScattered clouds.3 mph48%30.18 "HgN/A
10:00 AM81 °FPassing clouds.3 mph54%30.21 "HgN/A
9:30 AM77 °FPassing clouds.3 mph65%30.21 "HgN/A
9:00 AM75 °FPassing clouds.No wind65%30.21 "HgN/A
8:30 AM72 °FPassing clouds.No wind78%30.18 "HgN/A
8:00 AM70 °FPassing clouds.No wind83%30.18 "HgN/A
7:30 AM68 °FPassing clouds.No wind88%30.15 "HgN/A
7:00 AMN/APassing clouds.No windN/A30.15 "HgN/A
6:00 AM63 °FScattered clouds.No wind100%30.12 "HgN/A
5:30 AM63 °FPassing clouds.3 mph100%30.12 "HgN/A
5:00 AM63 °FPassing clouds.No wind100%30.12 "HgN/A
4:30 AM64 °FPassing clouds.No wind100%30.12 "HgN/A
4:00 AM64 °FPassing clouds.No wind100%30.12 "HgN/A
3:30 AM66 °FPassing clouds.No wind88%30.12 "HgN/A
3:00 AM66 °FPassing clouds.No wind88%30.12 "HgN/A
2:30 AM64 °FPassing clouds.3 mph94%30.12 "HgN/A
2:00 AM64 °FPassing clouds.6 mph94%30.15 "HgN/A
1:30 AM66 °FPartly cloudy.6 mph88%30.15 "HgN/A
1:00 AM66 °FPartly cloudy.5 mph88%30.15 "HgN/A
11:30 PM
Tue, Sep 1
68 °FPartly cloudy.5 mph88%30.18 "HgN/A
11:00 PM68 °FPartly cloudy.9 mph88%30.21 "HgN/A
10:30 PM68 °FPassing clouds.9 mph88%30.21 "HgN/A
10:00 PM68 °FPassing clouds.10 mph88%30.18 "HgN/A
9:30 PM70 °FLight rain. Passing clouds.8 mph83%30.18 "Hg5 mi
9:00 PM72 °FPassing clouds.6 mph73%30.18 "HgN/A
8:30 PM72 °FPassing clouds.7 mph73%30.15 "HgN/A
8:00 PM73 °FPassing clouds.9 mph69%30.12 "HgN/A
7:30 PM75 °FPassing clouds.7 mph65%30.12 "HgN/A
7:00 PM75 °FPassing clouds.6 mph65%30.09 "HgN/A
6:30 PM77 °FPassing clouds.6 mph61%30.09 "HgN/A
6:00 PM77 °FScattered clouds.8 mph61%30.07 "HgN/A
5:30 PM79 °FPartly sunny.20 mph54%30.04 "HgN/A
5:00 PM84 °FPartly sunny.5 mph43%30.04 "HgN/A
4:00 PM86 °FScattered clouds.3 mph40%30.04 "HgN/A
3:30 PM84 °FScattered clouds.7 mph43%30.07 "HgN/A
3:00 PM84 °FScattered clouds.3 mph43%30.07 "HgN/A
Weather by CustomWeather, © 2015

See weather overviewHow to use our weather pages